TimeEDT,TemperatureF,Dew PointF,Humidity,Sea Level PressureIn,VisibilityMPH,Wind Direction,Wind SpeedMPH,Gust SpeedMPH,PrecipitationIn,Events,Conditions,WindDirDegrees,DateUTC
12:53 AM,61.0,57.0,87,30.09,10.0,SSE,4.6,-,N/A,,Clear,150,2013-09-07 04:53:00
1:53 AM,61.0,55.9,83,30.08,10.0,SSE,3.5,-,N/A,,Clear,160,2013-09-07 05:53:00
2:53 AM,60.1,55.0,83,30.08,10.0,Calm,Calm,-,N/A,,Clear,0,2013-09-07 06:53:00
3:53 AM,59.0,55.0,87,30.07,10.0,Calm,Calm,-,N/A,,Clear,0,2013-09-07 07:53:00
4:53 AM,61.0,55.0,81,30.07,10.0,South,3.5,-,N/A,,Clear,170,2013-09-07 08:53:00
5:53 AM,57.9,54.0,87,30.07,10.0,ESE,4.6,-,N/A,,Clear,110,2013-09-07 09:53:00
6:53 AM,57.9,54.0,87,30.07,10.0,ESE,3.5,-,N/A,,Clear,110,2013-09-07 10:53:00
7:53 AM,59.0,55.0,87,30.08,10.0,SSE,3.5,-,N/A,,Clear,150,2013-09-07 11:53:00
8:05 AM,60.8,55.4,82,30.10,10.0,Calm,Calm,-,N/A,,Partly Cloudy,0,2013-09-07 12:05:00
8:53 AM,66.9,59.0,76,30.08,10.0,South,3.5,-,N/A,,Clear,170,2013-09-07 12:53:00
9:53 AM,71.1,60.1,68,30.07,10.0,South,4.6,-,N/A,,Clear,190,2013-09-07 13:53:00
10:53 AM,75.9,63.0,64,30.07,10.0,SW,3.5,-,N/A,,Clear,220,2013-09-07 14:53:00
11:53 AM,81.0,66.0,60,30.06,10.0,WSW,6.9,-,N/A,,Clear,240,2013-09-07 15:53:00
12:53 PM,84.0,64.9,53,30.05,10.0,WSW,6.9,-,N/A,,Scattered Clouds,250,2013-09-07 16:53:00
1:53 PM,84.9,64.9,51,30.02,10.0,WSW,10.4,-,N/A,,Partly Cloudy,240,2013-09-07 17:53:00
2:53 PM,87.1,64.9,48,29.98,10.0,WSW,10.4,-,N/A,,Partly Cloudy,240,2013-09-07 18:53:00
3:53 PM,88.0,63.0,43,29.97,10.0,WSW,8.1,-,N/A,,Clear,240,2013-09-07 19:53:00
4:53 PM,87.1,63.0,44,29.96,10.0,SW,9.2,-,N/A,,Clear,230,2013-09-07 20:53:00
5:53 PM,87.1,62.1,43,29.95,10.0,West,8.1,-,N/A,,Clear,260,2013-09-07 21:53:00
6:53 PM,82.0,64.0,54,29.95,10.0,SW,3.5,-,N/A,,Clear,230,2013-09-07 22:53:00
7:53 PM,79.0,64.0,60,29.97,10.0,West,4.6,-,N/A,,Partly Cloudy,260,2013-09-07 23:53:00
8:53 PM,75.0,64.9,71,29.96,10.0,SW,4.6,-,N/A,,Clear,220,2013-09-08 00:53:00
9:53 PM,75.0,64.9,71,29.96,10.0,SSW,3.5,-,N/A,,Scattered Clouds,200,2013-09-08 01:53:00
10:53 PM,73.9,66.0,76,29.97,10.0,South,3.5,-,0.00,,Scattered Clouds,190,2013-09-08 02:53:00
11:53 PM,73.0,66.0,79,29.96,10.0,Calm,Calm,-,N/A,,Partly Cloudy,0,2013-09-08 03:53:00